Regional Weather Roundup
Issued by NWS

Home | Current Version | Previous Version | Graphics & Text | Print | Product List | Glossary On
Versions: 1 2 3 4 5 6 7 8 9 10 11 12 13 14 15 16 17 18 19 20 21 22 23 24 25 26 27 28 29 30 31 32 33 34 35 36 37 38 39 40 41 42 43 44 45 46 47 48 49 50
637
ASUS45 KBOU 290607
RWRCO

WEATHER ROUNDUP FOR COLORADO
NATIONAL WEATHER SERVICE DENVER/BOULDER CO
1200 AM MDT THU JUN 29 2017

NOTE: "FAIR" INDICATES FEW OR NO CLOUDS BELOW 12000 FEET WITH NO
SIGNIFICANT WEATHER AND/OR OBSTRUCTIONS TO VISIBILITY.

COZ001>005-013-030-031-290700-
...NORTHWEST COLORADO...

CITY           SKY/WX    TMP DP  RH WIND       PRES   REMARKS
CRAIG          FAIR      66  32  28 N7        30.00R
HAYDEN         FAIR      59  32  36 SE9       30.01F
MEEKER         FAIR      68  30  24 VRB5      29.98R
RABBIT EARS PA FAIR      48  30  49 NE5       30.28F
STEAMBOAT SPGS FAIR      55  35  47 CALM      30.02F
WALDEN         NOT AVBL
$$

COZ006>008-011-290700-
...WEST CENTRAL VALLEYS...

CITY           SKY/WX    TMP DP  RH WIND       PRES   REMARKS
GRAND JUNCTION FAIR      73  17  12 N5        29.81R
MONTROSE       FAIR      69  11  10 S7        29.90F
EAGLE          FAIR      67  28  23 SE9       30.01R
RIFLE          FAIR      71  22  15 SE14      29.87S
DELTA          FAIR      71  20  14 N12       29.85S
NUCLA          FAIR      70   7   8 NE7       29.97R
$$

COZ017>023-064>068-290700-
...SOUTHWEST COLORADO...

CITY           SKY/WX    TMP DP  RH WIND       PRES   REMARKS
DURANGO        FAIR      54  21  27 CALM      30.04R
CORTEZ         FAIR      55  21  26 E8        29.99R
PAGOSA SPRINGS FAIR      52   8  17 CALM      30.12S
TELLURIDE      FAIR      59   8  13 CALM      30.24S
WOLF CREEK PAS FAIR      50   3  14 SW9G18    30.48S
$$

COZ009-010-012-014-032>034-037-058>063-290700-
...CENTRAL COLORADO...

CITY           SKY/WX    TMP DP  RH WIND       PRES   REMARKS
ASPEN          FAIR      58  27  30 SW10      30.08R
BUENA VISTA    FAIR      53  19  26 W8        30.09S
COPPER MTN     FAIR      54  16  22 W8        30.41R
BERTHOUD PASS  FAIR      37  27  65 NW6       30.44F
COTTONWOOD PAS FAIR      64 -13   4 W3        30.24S
GUNNISON       FAIR      50  30  46 N3        30.10R
KREMMLING      FAIR      64  36  34 S6        30.10S
LEADVILLE      MOCLDY    48  19  31 NE10G17   30.22S
MONARCH PASS   FAIR      50   5  16 SW22      30.50F
SALIDA         FAIR      66  11  11 W8        30.12S
SUNLIGHT       FAIR      52  18  25 W7        30.32F
WILKERSON PASS FAIR      54  23  30 CALM      30.37F
$$

COZ069>075-290700-
...SAN LUIS VALLEY/SANGRE DE CRISTO MOUNTAINS...

CITY           SKY/WX    TMP DP  RH WIND       PRES   REMARKS
ALAMOSA        FAIR      54  22  28 SW13      30.08S
DEL NORTE      FAIR      61  10  13 W9        30.11F
LA VETA PASS   FAIR      55  14  19 MISG      30.37F
SAGUACHE       FAIR      55  10  16 N9        30.10S
$$

COZ035-036-038>040-290700-
...NORTHERN COLORADO FRONT RANGE...

CITY           SKY/WX    TMP DP  RH WIND       PRES   REMARKS
DENVER INTL AP MOCLDY    69  45  41 W7        29.91R
DMNS CITY PARK   N/A     70  44  39 N6G12     29.91R
AURORA         MOCLDY    68  46  45 SE5       29.92R
FRONT RANGE AP FAIR      70  46  43 SE20      29.90R
ERIE MUNI ARPT FAIR      66  46  49 CALM      29.90R
BOULDER MUN AP FAIR      72  41  33 N8        29.91S
CENTENNIAL     FAIR      67  46  47 S8        29.93R
BROOMFIELD     FAIR      68  41  37 N6        29.94R
FORT COLLINS   FAIR      72  39  30 NE10      29.90F
LONGMONT       FAIR      74  39  28 NE8       29.92R
$$

COZ041-046-047-076>085-087-088-290700-
...PIKES PEAK/PALMER DIVIDE AND SOUTHERN FOOTHILLS...

CITY           SKY/WX    TMP DP  RH WIND       PRES   REMARKS
COLO. SPRINGS  FAIR      68  45  43 N10       29.96R
A. F. ACADEMY  FAIR      58  46  63 NW5       29.97S
SCHRIEVER AFB  FAIR      64  46  50 N12G17    29.96R
CHEYENNE MTN   FAIR      69  40  35 NW8       29.96R
ELLICOTT       FAIR     N/A N/A N/A E16       29.91F
FALCON           N/A     61  46  57 N9        30.01S
FORT CARSON    FAIR      67  44  42 N13       29.92R
LIMON          FAIR      61  52  72 SE8       29.90F
MONUMENT HILL  FAIR      57  45  62 SE12      30.02F
CANON CITY     CLEAR     70  41  35 S3        29.87R
WALSENBURG     FAIR      72  19  14 W13       29.92R
TRINIDAD       FAIR      70  24  17 W14       29.88S
$$

COZ042>045-048>051-090-091-290700-
...NORTHEAST COLORADO...

CITY           SKY/WX    TMP DP  RH WIND       PRES   REMARKS
GREELEY ARPT   FAIR      70  47  43 N13       29.89F
AKRON          FAIR      68  47  46 S10       29.82F
BURLINGTON     TSTM      65  59  81 NW40G52   29.90R
WRAY           FAIR      70  54  56 E12G18    29.75F THUNDER
YUMA           FAIR      66  50  55 S6        29.77F
STERLING       FAIR      64  52  63 N21G28    29.84R
HOLYOKE        NOT AVBL
FORT MORGAN    FAIR      68  43  40 NW20G31   29.90R
$$

COZ086-089-092>099-290700-
...SOUTHEAST COLORADO...

CITY           SKY/WX    TMP DP  RH WIND       PRES   REMARKS
PUEBLO         FAIR      75  48  38 NE15      29.80R
LA JUNTA       FAIR      73  54  51 NE18      29.72F
LAMAR          FAIR      74  59  59 E15G21    29.70F
SPRINGFIELD      N/A     70  56  61 S14       29.75F
$$




USA.gov is the U.S. government's official web portal to all federal, state and local government web resources and services.